Location: Unspecified
(0.0000°N, 0.0000°E)
Time: 17:01:43
(UTC+00:00)

deb Kosmos-1275 - Pass Details

Date: 07 March 2026
Orbit: 880 x 1009 km, 83.1° (Epoch: 18 April)

Event Time Altitude Azimuth Distance (km) Brightness Sun altitude
Exits shadow 04:44:30 31° 314° (NW) 1,633 ? -21.6°
Maximum altitude 04:46:48 43° 268° (W) 1,331 ? -21.0°
Drops below altitude 10° 04:52:35 10° 197° (SSW) 2,677 ? -19.5°
Sets 04:55:10 0° 191° (S) 3,604 ? -18.9°
